| time (UTC) | temp C | wind direction | speed KPH | gust KPH | rain 1hr cm | rain 24hr cm | rain mn cm | humidity % | barometer mb |
| 20260510013023 | 11 | 298 | 9.7 | 14.5 | 0.00 | 0.10 | 0.10 | 40 | 1012.8 |
| 20260510011515 | 12 | 292 | 9.7 | 17.7 | 0.00 | 0.10 | 0.10 | 38 | 1012.5 |
| 20260510010013 | 12 | 335 | 14.5 | 22.5 | 0.00 | 0.10 | 0.10 | 34 | 1012.3 |
| 20260510004514 | 13 | 302 | 14.5 | 27.4 | 0.00 | 0.10 | 0.10 | 35 | 1012.1 |
| 20260510003011 | 13 | 321 | 17.7 | 29.0 | 0.00 | 0.10 | 0.10 | 33 | 1012.0 |
| 20260510001510 | 13 | 352 | 16.1 | 30.6 | 0.00 | 0.10 | 0.10 | 33 | 1011.9 |
| 20260510000009 | 13 | 335 | 24.1 | 32.2 | 0.00 | 0.10 | 0.10 | 32 | 1011.7 |
| 20260509234507 | 14 | 314 | 16.1 | 32.2 | 0.00 | 0.10 | 0.10 | 33 | 1011.6 |
| 20260509233006 | 14 | 351 | 19.3 | 29.0 | 0.00 | 0.10 | 0.10 | 32 | 1011.4 |
| 20260509231505 | 14 | 333 | 20.9 | 35.4 | 0.00 | 0.10 | 0.10 | 32 | 1011.4 |
| 20260509230007 | 14 | 324 | 22.5 | 35.4 | 0.00 | 0.10 | 0.10 | 32 | 1011.2 |
| 20260509224506 | 14 | 280 | 20.9 | 38.6 | 0.00 | 0.10 | 0.10 | 33 | 1011.1 |
| 20260509223002 | 15 | 326 | 30.6 | 37.0 | 0.00 | 0.10 | 0.10 | 32 | 1010.9 |
| 20260509221503 | 15 | 333 | 25.7 | 32.2 | 0.00 | 0.10 | 0.10 | 32 | 1010.9 |
| 20260509214632 | 15 | 295 | 27.4 | 45.1 | 0.00 | 0.10 | 0.10 | 33 | 1010.9 |
| 20260509213102 | 15 | 325 | 25.7 | 35.4 | 0.00 | 0.10 | 0.10 | 34 | 1010.8 |
| 20260509211559 | 15 | 348 | 24.1 | 37.0 | 0.00 | 0.10 | 0.10 | 33 | 1010.8 |
| 20260509210107 | 15 | 308 | 22.5 | 45.1 | 0.00 | 0.10 | 0.10 | 34 | 1010.8 |
| 20260509204556 | 14 | 359 | 30.6 | 45.1 | 0.00 | 0.10 | 0.10 | 35 | 1010.7 |
| 20260509203105 | 14 | 359 | 24.1 | 37.0 | 0.00 | 0.10 | 0.10 | 35 | 1010.8 |
| 20260509201556 | 14 | 297 | 25.7 | 51.5 | 0.00 | 0.10 | 0.10 | 35 | 1010.8 |
| 20260509200055 | 14 | 330 | 22.5 | 37.0 | 0.00 | 0.10 | 0.10 | 35 | 1010.8 |
| 20260509194551 | 14 | 350 | 22.5 | 35.4 | 0.00 | 0.10 | 0.10 | 37 | 1010.6 |
| 20260509193055 | 13 | 338 | 25.7 | 46.7 | 0.00 | 0.10 | 0.10 | 39 | 1010.6 |
| 20260509191558 | 13 | 335 | 27.4 | 40.2 | 0.00 | 0.10 | 0.10 | 37 | 1010.6 |
| 20260509190052 | 13 | 347 | 29.0 | 41.8 | 0.00 | 0.10 | 0.10 | 38 | 1010.3 |
| 20260509184555 | 13 | 340 | 22.5 | 46.7 | 0.00 | 0.10 | 0.10 | 40 | 1010.2 |
| 20260509183050 | 13 | 351 | 27.4 | 45.1 | 0.00 | 0.10 | 0.10 | 39 | 1010.0 |
| 20260509181541 | 13 | 356 | 32.2 | 45.1 | 0.00 | 0.10 | 0.10 | 39 | 1009.9 |
| 20260509180041 | 13 | 342 | 29.0 | 40.2 | 0.00 | 0.10 | 0.10 | 39 | 1009.8 |
| 20260509174553 | 13 | 1 | 25.7 | 38.6 | 0.00 | 0.10 | 0.10 | 38 | 1009.6 |
| 20260509173039 | 13 | 338 | 32.2 | 40.2 | 0.00 | 0.10 | 0.10 | 41 | 1009.5 |
| 20260509171533 | 12 | 360 | 25.7 | 40.2 | 0.00 | 0.10 | 0.10 | 43 | 1009.4 |
| 20260509170030 | 12 | 341 | 24.1 | 40.2 | 0.00 | 0.10 | 0.10 | 44 | 1009.3 |
| 20260509164528 | 12 | 351 | 20.9 | 35.4 | 0.00 | 0.10 | 0.10 | 45 | 1009.2 |
| 20260509163033 | 12 | 341 | 24.1 | 37.0 | 0.00 | 0.10 | 0.10 | 47 | 1008.9 |
| 20260509161519 | 11 | 342 | 24.1 | 37.0 | 0.00 | 0.10 | 0.10 | 48 | 1008.7 |
| 20260509160016 | 11 | 344 | 27.4 | 35.4 | 0.00 | 0.10 | 0.10 | 50 | 1008.6 |
| 20260509154512 | 11 | 345 | 17.7 | 35.4 | 0.00 | 0.10 | 0.10 | 54 | 1008.3 |
| 20260509153009 | 11 | 336 | 24.1 | 35.4 | 0.00 | 0.10 | 0.10 | 53 | 1008.0 |
| 20260509151503 | 10 | 352 | 22.5 | 30.6 | 0.00 | 0.10 | 0.10 | 59 | 1008.0 |
| 20260509150101 | 10 | 349 | 22.5 | 33.8 | 0.00 | 0.10 | 0.10 | 64 | 1007.7 |
| 20260509144555 | 10 | 359 | 22.5 | 33.8 | 0.00 | 0.10 | 0.10 | 68 | 1007.5 |
| 20260509143050 | 10 | 360 | 19.3 | 32.2 | 0.00 | 0.10 | 0.10 | 74 | 1007.4 |
| 20260509141546 | 9 | 354 | 19.3 | 29.0 | 0.00 | 0.10 | 0.10 | 74 | 1007.2 |
| 20260509140041 | 9 | 340 | 20.9 | 27.4 | 0.00 | 0.10 | 0.10 | 75 | 1007.0 |
| 20260509134538 | 8 | 346 | 19.3 | 27.4 | 0.00 | 0.10 | 0.10 | 80 | 1006.8 |
| 20260509133036 | 8 | 350 | 17.7 | 27.4 | 0.00 | 0.10 | 0.10 | 83 | 1006.7 |
| 20260509131533 | 7 | 333 | 16.1 | 24.1 | 0.00 | 0.10 | 0.10 | 85 | 1006.5 |
| 20260509130035 | 7 | 319 | 20.9 | 27.4 | 0.00 | 0.10 | 0.10 | 86 | 1006.4 |
| 20260509124521 | 7 | 335 | 19.3 | 27.4 | 0.00 | 0.10 | 0.10 | 85 | 1006.0 |
| 20260509123019 | 7 | 332 | 20.9 | 30.6 | 0.00 | 0.10 | 0.10 | 86 | 1005.9 |
| 20260509121523 | 7 | 342 | 16.1 | 29.0 | 0.00 | 0.10 | 0.10 | 86 | 1005.8 |
| 20260509120013 | 7 | 354 | 17.7 | 29.0 | 0.00 | 0.10 | 0.10 | 86 | 1005.3 |
| 20260509114510 | 7 | 334 | 24.1 | 38.6 | 0.00 | 0.10 | 0.10 | 86 | 1004.8 |
| 20260509113007 | 7 | 350 | 20.9 | 32.2 | 0.00 | 0.10 | 0.10 | 86 | 1004.5 |
| 20260509111501 | 8 | 322 | 22.5 | 33.8 | 0.00 | 0.10 | 0.10 | 83 | 1004.2 |
| 20260509110107 | 8 | 1 | 19.3 | 27.4 | 0.00 | 0.10 | 0.10 | 83 | 1003.8 |
| 20260509104555 | 9 | 319 | 20.9 | 30.6 | 0.00 | 0.10 | 0.10 | 82 | 1003.6 |
| 20260509103101 | 10 | 308 | 17.7 | 33.8 | 0.00 | 0.10 | 0.10 | 81 | 1003.4 |
| 20260509101602 | 10 | 306 | 19.3 | 27.4 | 0.03 | 0.10 | 0.10 | 79 | 1003.2 |
| 20260509100051 | 10 | 319 | 12.9 | 22.5 | 0.10 | 0.10 | 0.10 | 79 | 1002.6 |
| 20260509094603 | 10 | 281 | 14.5 | 24.1 | 0.10 | 0.10 | 0.10 | 79 | 1002.6 |
| 20260509093050 | 9 | 262 | 16.1 | 24.1 | 0.10 | 0.10 | 0.10 | 81 | 1002.6 |
| 20260509091548 | 8 | 266 | 6.4 | 14.5 | 0.08 | 0.08 | 0.08 | 85 | 1002.8 |
| 20260509090057 | 8 | 281 | 4.8 | 9.7 | 0.00 | 0.00 | 0.00 | 83 | 1003.3 |
| 20260509084549 | 8 | 301 | 6.4 | 12.9 | 0.00 | 0.00 | 0.00 | 81 | 1003.0 |
| 20260509083053 | 8 | 319 | 6.4 | 17.7 | 0.00 | 0.00 | 0.00 | 79 | 1002.9 |
| 20260509081542 | 9 | 312 | 12.9 | 25.7 | 0.00 | 0.00 | 0.00 | 78 | 1002.8 |
| 20260509080040 | 10 | 338 | 17.7 | 30.6 | 0.00 | 0.00 | 0.00 | 76 | 1002.7 |
| 20260509074541 | 10 | 353 | 22.5 | 35.4 | 0.00 | 0.00 | 0.00 | 71 | 1002.2 |
| 20260509073035 | 11 | 354 | 22.5 | 37.0 | 0.00 | 0.00 | 0.00 | 62 | 1002.2 |
| 20260509071535 | 10 | 300 | 22.5 | 30.6 | 0.00 | 0.00 | 0.00 | 56 | 1001.6 |
| 20260509070026 | 10 | 331 | 20.9 | 30.6 | 0.00 | 0.00 | 0.00 | 55 | 1000.9 |
| 20260509064524 | 9 | 224 | 16.1 | 22.5 | 0.00 | 0.00 | 0.00 | 60 | 999.8 |
| 20260509063023 | 10 | 226 | 14.5 | 20.9 | 0.00 | 0.00 | 0.00 | 59 | 1000.0 |
| 20260509061522 | 10 | 228 | 17.7 | 24.1 | 0.00 | 0.00 | 0.00 | 58 | 1000.1 |
| 20260509060018 | 10 | 223 | 19.3 | 24.1 | 0.00 | 0.00 | 0.00 | 58 | 1000.2 |
| 20260509054515 | 10 | 231 | 16.1 | 22.5 | 0.00 | 0.00 | 0.00 | 58 | 1000.3 |
| 20260509053016 | 10 | 219 | 14.5 | 19.3 | 0.00 | 0.00 | 0.00 | 58 | 1000.3 |
| 20260509051510 | 10 | 228 | 14.5 | 22.5 | 0.00 | 0.00 | 0.00 | 58 | 1000.4 |
| 20260509050012 | 10 | 223 | 17.7 | 22.5 | 0.00 | 0.00 | 0.00 | 59 | 1000.6 |
| 20260509044506 | 9 | 212 | 16.1 | 19.3 | 0.00 | 0.00 | 0.00 | 61 | 1000.8 |
| 20260509043004 | 9 | 212 | 12.9 | 19.3 | 0.00 | 0.00 | 0.00 | 62 | 1001.1 |
| 20260509041502 | 9 | 208 | 12.9 | 16.1 | 0.00 | 0.00 | 0.00 | 59 | 1001.3 |
| 20260509040001 | 8 | 228 | 9.7 | 14.5 | 0.00 | 0.00 | 0.00 | 60 | 1001.6 |
| 20260509034503 | 8 | 241 | 9.7 | 14.5 | 0.00 | 0.00 | 0.00 | 61 | 1001.8 |
| 20260509033059 | 9 | 245 | 9.7 | 14.5 | 0.00 | 0.00 | 0.00 | 58 | 1002.0 |
| 20260509031602 | 9 | 235 | 9.7 | 14.5 | 0.00 | 0.00 | 0.00 | 56 | 1002.1 |
| 20260509030113 | 10 | 236 | 9.7 | 14.5 | 0.00 | 0.00 | 0.00 | 54 | 1002.3 |
| 20260509024602 | 12 | 236 | 9.7 | 14.5 | 0.00 | 0.00 | 0.00 | 46 | 1002.3 |
| 20260509023059 | 12 | 240 | 8.0 | 12.9 | 0.00 | 0.00 | 0.00 | 45 | 1002.3 |
| 20260509021558 | 13 | 243 | 9.7 | 14.5 | 0.00 | 0.00 | 0.00 | 42 | 1002.3 |
| 20260509020106 | 13 | 242 | 6.4 | 9.7 | 0.00 | 0.00 | 0.00 | 43 | 1002.2 |
| 20260509014557 | 15 | 280 | 8.0 | 12.9 | 0.00 | 0.00 | 0.00 | 37 | 1002.3 |